Flag for Germany Weather past 2 weeks in Pinneberg, Schleswig-Holstein, Germany

Now
59 °F

Broken clouds.


Feels Like: 56 °F
Forecast: 50 / 62 °F
Wind: 16 mph from West

Location: Hamburg-Fuhlsbuettel

Current Time: Jul 30, 2015 at 12:22:25 PM

Latest Report: Jul 30, 2015 at 11:50 AM


Visibility: N/A

Pressure: 29.77 "Hg

Humidity: 77%

Dew point: 52 °F

Location of PinnebergLocation

Historic Weather in Pinneberg — Graph

°F

Pinneberg temperature yesterday

Maximum temperature yesterday: 64 °F (at 1:50 PM)
Minimum temperature yesterday: 54 °F (at 9:20 PM)
Average temperature yesterday: 58 °F

Past Weeks' High & Low Weather Summary

 TemperatureHumidityPressure
High86 °F (Jul 17, 4:50 PM)100% (Jul 18, 6:20 AM)30.09 "Hg (Jul 18, 6:20 AM)
Low48 °F (Jul 24, 4:50 AM)36% (Jul 24, 4:50 PM)29.42 "Hg (Jul 25, 1:20 PM)
Average63 °F77%29.81 "Hg
* Reported Jul 15 10:20 AM — Jul 30 10:20 AM, Pinneberg, Weather by CustomWeather, © 2015

Note: Actual official high and low records may vary slightly from our data, if they occured in-between our weather recording intervals... More about our weather records

Advertising

Pinneberg weather history for previous 24 hours

 ConditionsComfort  
Time TempWeatherWind HumidityBarometerVisibility
10:20 AM
Thu, Jul 30
57 °FBroken clouds.16 mph82%29.74 "HgN/A
9:50 AM57 °FBroken clouds.15 mph82%29.74 "HgN/A
9:20 AM55 °FDrizzle. Broken clouds.16 mph94%29.74 "HgN/A
8:50 AM57 °FBroken clouds.15 mph88%29.71 "HgN/A
8:20 AM55 °FDrizzle. Broken clouds.15 mph94%29.71 "HgN/A
7:50 AM55 °FDrizzle. Broken clouds.16 mph94%29.68 "Hg4 mi
7:20 AM55 °FDrizzle. Broken clouds.16 mph94%29.68 "HgN/A
6:50 AM55 °FDrizzle. Broken clouds.15 mph94%29.68 "HgN/A
6:20 AM55 °FLight rain. Passing clouds.14 mph94%29.68 "HgN/A
5:50 AM55 °FLight rain. Passing clouds.17 mph94%29.65 "HgN/A
5:20 AM55 °FLight rain. Partly cloudy.16 mph94%29.65 "HgN/A
4:50 AM55 °FLight rain. Partly cloudy.15 mph94%29.65 "HgN/A
4:20 AM55 °FLight rain. Partly cloudy.16 mph94%29.65 "HgN/A
3:50 AM55 °FLight rain. Partly cloudy.16 mph94%29.65 "HgN/A
3:20 AM55 °FLight rain. Partly cloudy.18 mph88%29.65 "HgN/A
2:50 AM55 °FLight rain. Passing clouds.15 mph94%29.65 "HgN/A
2:20 AM55 °FLight rain. Passing clouds.16 mph94%29.62 "HgN/A
1:50 AM55 °FLight rain. Passing clouds.17 mph94%29.62 "HgN/A
1:20 AM55 °FLight rain. Passing clouds.17 mph94%29.62 "HgN/A
12:50 AM55 °FLight rain. Passing clouds.16 mph94%29.62 "HgN/A
12:20 AM55 °FLight rain. Passing clouds.14 mph94%29.62 "HgN/A
11:50 PM
Wed, Jul 29
55 °FLight rain. Partly cloudy.16 mph94%29.62 "HgN/A
11:20 PM55 °FLight rain. Passing clouds.16 mph94%29.59 "HgN/A
10:50 PM54 °FRain. Passing clouds.15 mph100%29.59 "HgN/A
10:20 PM54 °FRain. Partly sunny.21 mph94%29.56 "HgN/A
9:50 PM54 °FLight rain. Partly sunny.20 mph94%29.56 "HgN/A
9:20 PM54 °FRain. Partly sunny.15 mph94%29.59 "HgN/A
8:50 PM55 °FLight rain. Partly sunny.23 mph88%29.56 "HgN/A
8:20 PM55 °FLight rain. Partly sunny.20 mph88%29.59 "HgN/A
7:50 PM55 °FLight rain. Partly sunny.18 mph88%29.59 "HgN/A
7:20 PM57 °FSprinkles. Partly sunny.22 mph72%29.59 "HgN/A
6:50 PM59 °FScattered clouds.24 mph68%29.59 "HgN/A
6:20 PM59 °FPartly sunny.21 mph68%29.59 "HgN/A
5:50 PM61 °FScattered clouds.22 mph63%29.59 "HgN/A
5:20 PM63 °FScattered clouds.23 mph59%29.59 "HgN/A
4:50 PM63 °FScattered clouds.22 mph59%29.59 "HgN/A
4:20 PM61 °FBroken clouds.21 mph68%29.59 "HgN/A
3:50 PM63 °FScattered clouds.15 mph59%29.59 "HgN/A
3:20 PM63 °FScattered clouds.16 mph64%29.59 "HgN/A
2:50 PM61 °FScattered clouds.17 mph63%29.59 "HgN/A
2:20 PM57 °FScattered showers. Scattered clouds.23 mph63%29.62 "HgN/A
1:50 PM64 °FScattered showers. Scattered clouds.17 mph68%29.59 "HgN/A
1:20 PM61 °FScattered showers. Scattered clouds.16 mph72%29.59 "HgN/A
12:50 PM57 °FSprinkles. Scattered clouds.12 mph82%29.59 "HgN/A
12:20 PM61 °FSprinkles. Partly sunny.16 mph68%29.59 "HgN/A
Weather by CustomWeather, © 2015

See weather overviewHow to use our weather pages